timestamp,surface_pressure_avg,surface_temp_avg,battery_voltage,lat,long
2018-02-18 00:00:00+00:00,332.3496,0.8,12.81,47.84626,-54.09684
2018-02-18 00:10:00+00:00,343.9579,0.9,12.81,47.84626,-54.09684
2018-02-18 00:20:00+00:00,352.7513,1.6,12.89,47.84626,-54.09684
2018-02-18 00:30:00+00:00,346.8279,1.08,12.81,47.84626,-54.09684
2018-02-18 00:40:00+00:00,355.3397,0.9,12.89,47.84626,-54.09684
2018-02-18 00:50:00+00:00,362.7462,0.93,12.89,47.84626,-54.09684
2018-02-18 01:00:00+00:00,361.6447,1.3,12.81,47.84626,-54.09684
2018-02-18 01:10:00+00:00,359.4564,1.1,12.73,47.84626,-54.09684
2018-02-18 01:20:00+00:00,368.493,1.19,12.81,47.84626,-54.09684
2018-02-18 01:30:00+00:00,377.2562,1.59,12.81,47.84626,-54.09684
2018-02-18 01:40:00+00:00,377.9246,1.7,12.89,47.84626,-54.09684
2018-02-18 01:50:00+00:00,364.5596,1.15,12.89,47.84626,-54.09684
2018-02-18 02:00:00+00:00,360.6963,0.98,12.81,47.84626,-54.09684
2018-02-18 02:10:00+00:00,359.2746,1.7,12.73,47.84626,-54.09684
2018-02-18 02:20:00+00:00,347.7679,1.7,12.81,47.84626,-54.09684
2018-02-18 02:30:00+00:00,339.3895,1.7,12.81,47.84626,-54.09684
2018-02-18 02:40:00+00:00,335.848,1.5,12.81,47.84626,-54.09684
2018-02-18 02:50:00+00:00,339.7812,1.5,12.81,47.84626,-54.09684
2018-02-18 03:00:00+00:00,338.6847,1.6,12.81,47.84626,-54.09684
2018-02-18 03:10:00+00:00,335.1462,1.52,12.73,47.84626,-54.09684
2018-02-18 03:20:00+00:00,331.3864,1.5,12.81,47.84626,-54.09684
2018-02-18 03:30:00+00:00,325.0179,1.54,12.81,47.84626,-54.09684
2018-02-18 03:40:00+00:00,314.113,1.7,12.81,47.84626,-54.09684
2018-02-18 03:50:00+00:00,309.3846,1.7,12.81,47.84626,-54.09684
2018-02-18 04:00:00+00:00,303.5814,1.6,12.73,47.84626,-54.09684
2018-02-18 04:10:00+00:00,291.6781,1.56,12.73,47.84626,-54.09684
2018-02-18 04:20:00+00:00,283.3547,1.52,12.81,47.84626,-54.09684
2018-02-18 04:30:00+00:00,280.6314,1.6,12.81,47.84626,-54.09684
2018-02-18 04:40:00+00:00,278.2464,1.59,12.81,47.84626,-54.09684
2018-02-18 04:50:00+00:00,274.7614,1.34,12.81,47.84626,-54.09684
2018-02-18 05:00:00+00:00,269.1398,1.47,12.73,47.84626,-54.09684
2018-02-18 05:10:00+00:00,266.2248,1.62,12.73,47.84626,-54.09684
2018-02-18 05:20:00+00:00,259.188,1.62,12.81,47.84626,-54.09684
2018-02-18 05:30:00+00:00,249.2464,1.62,12.81,47.84626,-54.09684
2018-02-18 05:40:00+00:00,235.8631,1.63,12.81,47.84626,-54.09684
2018-02-18 05:50:00+00:00,230.2465,1.6,12.81,47.84626,-54.09684
2018-02-18 06:00:00+00:00,225.9264,1.6,12.73,47.84626,-54.09684
2018-02-18 06:10:00+00:00,215.9531,1.6,12.73,47.84626,-54.09684
2018-02-18 06:20:00+00:00,210.2098,1.33,12.81,47.84626,-54.09684
2018-02-18 06:30:00+00:00,205.6598,0.7,12.81,47.84626,-54.09684
2018-02-18 06:40:00+00:00,201.4881,0.5,12.81,47.84626,-54.09684
2018-02-18 06:50:00+00:00,198.0431,0.5,12.81,47.84626,-54.09684
2018-02-18 07:00:00+00:00,198.0681,0.2,12.73,47.84626,-54.09684
2018-02-18 07:10:00+00:00,207.3598,0.24,12.65,47.84626,-54.09684
2018-02-18 07:20:00+00:00,209.1065,0.3,12.81,47.84626,-54.09684
2018-02-18 07:30:00+00:00,203.5565,0.2,12.81,47.84626,-54.09684
2018-02-18 07:40:00+00:00,214.2531,0.12,12.81,47.84626,-54.09684
2018-02-18 07:50:00+00:00,229.7831,0.19,12.81,47.84626,-54.09684
2018-02-18 08:00:00+00:00,224.0281,0.2,12.73,47.84626,-54.09684
2018-02-18 08:10:00+00:00,219.2214,0.1,12.65,47.84626,-54.09684
2018-02-18 08:20:00+00:00,229.1864,0.11,12.73,47.84626,-54.09684
2018-02-18 08:30:00+00:00,232.6264,0.2,12.73,47.84626,-54.09684
2018-02-18 08:40:00+00:00,232.8314,0.19,12.81,47.84626,-54.09684
2018-02-18 08:50:00+00:00,239.4147,0.15,12.81,47.84626,-54.09684
2018-02-18 09:00:00+00:00,246.6098,0.11,12.73,47.84626,-54.09684
2018-02-18 09:10:00+00:00,253.8714,0.14,12.65,47.84626,-54.09684
2018-02-18 09:20:00+00:00,259.6081,0.46,12.73,47.84626,-54.09684
2018-02-18 09:30:00+00:00,258.9331,1.1,12.73,47.84626,-54.09684
2018-02-18 09:40:00+00:00,260.5964,0.48,12.81,47.84626,-54.09684
2018-02-18 09:50:00+00:00,271.0714,1.07,12.81,47.84626,-54.09684
2018-02-18 10:00:00+00:00,275.2731,1.0,12.73,47.84626,-54.09684
2018-02-18 10:10:00+00:00,270.3114,0.99,12.65,47.84626,-54.09684
2018-02-18 10:20:00+00:00,274.2631,0.73,12.73,47.84626,-54.09684
2018-02-18 10:30:00+00:00,286.5047,0.76,12.73,47.84626,-54.09684
2018-02-18 10:40:00+00:00,291.2947,1.33,12.81,47.84626,-54.09684
2018-02-18 10:50:00+00:00,294.813,1.4,12.81,47.84626,-54.09684
2018-02-18 11:00:00+00:00,311.9747,1.3,13.05,47.84626,-54.09684
2018-02-18 11:10:00+00:00,328.333,1.2,13.68,47.84626,-54.09684
2018-02-18 11:20:00+00:00,327.9663,1.3,15.35,47.84626,-54.09684
2018-02-18 11:30:00+00:00,333.4746,1.31,15.75,47.84626,-54.09684
2018-02-18 11:40:00+00:00,348.0579,1.3,16.23,47.84626,-54.09684
2018-02-18 11:50:00+00:00,363.9197,1.36,16.23,47.84626,-54.09684
2018-02-18 12:00:00+00:00,361.9363,1.4,16.07,47.84626,-54.09684
2018-02-18 12:10:00+00:00,361.033,1.4,16.31,47.84626,-54.09684
2018-02-18 12:20:00+00:00,363.4113,1.4,16.47,47.84626,-54.09684
2018-02-18 12:30:00+00:00,368.8646,1.5,16.39,47.84626,-54.09684
2018-02-18 12:40:00+00:00,370.6796,1.5,14.0,47.84626,-54.09684
2018-02-18 12:50:00+00:00,371.0496,1.54,13.44,47.84626,-54.09684
2018-02-18 13:00:00+00:00,366.0463,1.4,13.13,47.84626,-54.09684
2018-02-18 13:10:00+00:00,371.9996,1.44,12.97,47.84626,-54.09684
2018-02-18 13:20:00+00:00,376.8862,1.41,13.05,47.84626,-54.09684
2018-02-18 13:30:00+00:00,372.788,1.47,12.97,47.84626,-54.09684
2018-02-18 13:40:00+00:00,366.438,1.4,12.97,47.84626,-54.09684
2018-02-18 13:50:00+00:00,373.3697,1.3,12.97,47.84626,-54.09684
2018-02-18 14:00:00+00:00,374.9579,1.43,12.89,47.84626,-54.09684
2018-02-18 14:10:00+00:00,373.2095,1.48,12.89,47.84626,-54.09684
2018-02-18 14:20:00+00:00,369.1379,1.49,12.97,47.84626,-54.09684
2018-02-18 14:30:00+00:00,363.8546,1.39,12.89,47.84626,-54.09684
2018-02-18 14:40:00+00:00,356.7463,1.4,12.97,47.84626,-54.09684
2018-02-18 14:50:00+00:00,354.6763,1.41,12.97,47.84626,-54.09684
2018-02-18 15:00:00+00:00,343.3663,1.45,12.89,47.84626,-54.09684
2018-02-18 15:10:00+00:00,336.923,1.4,12.81,47.84626,-54.09684
2018-02-18 15:20:00+00:00,332.5447,1.4,12.89,47.84626,-54.09684
2018-02-18 15:30:00+00:00,324.123,1.4,12.89,47.84626,-54.09684
2018-02-18 15:40:00+00:00,317.7112,1.4,12.89,47.84626,-54.09684
2018-02-18 15:50:00+00:00,312.5847,1.44,12.89,47.84626,-54.09684
2018-02-18 16:00:00+00:00,303.3997,1.4,12.81,47.84626,-54.09684
2018-02-18 16:10:00+00:00,285.7498,1.29,12.81,47.84626,-54.09684
2018-02-18 16:20:00+00:00,275.3564,1.2,12.89,47.84626,-54.09684
2018-02-18 16:30:00+00:00,274.3197,1.22,12.89,47.84626,-54.09684
2018-02-18 16:40:00+00:00,268.8648,1.46,12.89,47.84626,-54.09684
2018-02-18 16:50:00+00:00,252.4247,1.5,12.89,47.84626,-54.09684
2018-02-18 17:00:00+00:00,243.2097,1.43,12.81,47.84626,-54.09684
2018-02-18 17:10:00+00:00,241.4348,1.5,12.81,47.84626,-54.09684
2018-02-18 17:20:00+00:00,228.9314,1.5,12.81,47.84626,-54.09684
2018-02-18 17:30:00+00:00,221.5331,1.3,12.81,47.84626,-54.09684
2018-02-18 17:40:00+00:00,218.1914,1.2,12.89,47.84626,-54.09684
2018-02-18 17:50:00+00:00,211.0464,1.0,12.89,47.84626,-54.09684
2018-02-18 18:00:00+00:00,200.5948,0.8,12.81,47.84626,-54.09684
2018-02-18 18:10:00+00:00,202.8981,0.8,12.73,47.84626,-54.09684
2018-02-18 18:20:00+00:00,200.3081,0.8,12.81,47.84626,-54.09684
2018-02-18 18:30:00+00:00,181.5931,0.7,12.81,47.84626,-54.09684
2018-02-18 18:40:00+00:00,173.6765,0.7,12.81,47.84626,-54.09684
2018-02-18 18:50:00+00:00,174.2898,0.7,12.89,47.84626,-54.09684
2018-02-18 19:00:00+00:00,165.0598,0.7,12.81,47.84626,-54.09684
2018-02-18 19:10:00+00:00,165.1765,0.67,12.73,47.84626,-54.09684
2018-02-18 19:20:00+00:00,169.8832,0.68,12.81,47.84626,-54.09684
2018-02-18 19:30:00+00:00,166.1348,0.6,12.81,47.84626,-54.09684
2018-02-18 19:40:00+00:00,175.0698,1.08,12.81,47.84626,-54.09684
2018-02-18 19:50:00+00:00,188.1548,1.3,12.81,47.84626,-54.09684
2018-02-18 20:00:00+00:00,182.8815,1.32,12.81,47.84626,-54.09684
2018-02-18 20:10:00+00:00,179.7748,1.3,12.73,47.84626,-54.09684
2018-02-18 20:20:00+00:00,197.9031,1.2,12.81,47.84626,-54.09684
2018-02-18 20:30:00+00:00,206.1348,1.2,12.81,47.84626,-54.09684
2018-02-18 20:40:00+00:00,199.0198,1.1,12.81,47.84626,-54.09684
2018-02-18 20:50:00+00:00,202.3314,1.09,12.81,47.84626,-54.09684
2018-02-18 21:00:00+00:00,211.4681,1.07,12.73,47.84626,-54.09684
2018-02-18 21:10:00+00:00,210.0865,1.0,12.73,47.84626,-54.09684
2018-02-18 21:20:00+00:00,213.5748,0.94,12.81,47.84626,-54.09684
2018-02-18 21:30:00+00:00,224.3964,0.9,12.81,47.84626,-54.09684
2018-02-18 21:40:00+00:00,227.1331,0.8,12.81,47.84626,-54.09684
2018-02-18 21:50:00+00:00,224.1648,0.7,12.81,47.84626,-54.09684
2018-02-18 22:00:00+00:00,232.0464,0.68,12.73,47.84626,-54.09684
2018-02-18 22:10:00+00:00,243.0697,0.65,12.73,47.84626,-54.09684
2018-02-18 22:20:00+00:00,246.5747,0.66,12.81,47.84626,-54.09684
2018-02-18 22:30:00+00:00,247.6848,0.6,12.81,47.84626,-54.09684
2018-02-18 22:40:00+00:00,250.4164,0.63,12.81,47.84626,-54.09684
2018-02-18 22:50:00+00:00,248.0415,0.7,12.81,47.84626,-54.09684
2018-02-18 23:00:00+00:00,249.2548,0.7,12.73,47.84626,-54.09684
2018-02-18 23:10:00+00:00,258.8097,0.7,12.73,47.84626,-54.09684
2018-02-18 23:20:00+00:00,274.7181,0.7,12.81,47.84626,-54.09684
2018-02-18 23:30:00+00:00,287.8563,0.59,12.81,47.84626,-54.09684
2018-02-18 23:40:00+00:00,302.8497,0.49,12.81,47.84626,-54.09684
2018-02-18 23:50:00+00:00,321.5696,0.5,12.81,47.84626,-54.09684
